| time (UTC) | temp F | wind direction | speed MPH | gust MPH | rain 1hr in | rain 24hr in | rain mn in | humidity % | barometer mb |
| 20260506160706 | 55 | 61 | 3.0 | 8.0 | 0.00 | 1.41 | 1.41 | 91 | 1006.3 |
| 20260506160206 | 55 | 41 | 3.0 | 5.0 | 0.01 | 1.41 | 1.41 | 91 | 1006.2 |
| 20260506155706 | 55 | 96 | 3.0 | 8.0 | 0.01 | 1.41 | 1.41 | 91 | 1006.2 |
| 20260506155206 | 55 | 68 | 2.0 | 7.0 | 0.02 | 1.41 | 1.41 | 92 | 1006.3 |
| 20260506154706 | 55 | 73 | 2.0 | 5.0 | 0.02 | 1.41 | 1.41 | 92 | 1006.4 |
| 20260506154206 | 55 | 56 | 2.0 | 5.0 | 0.02 | 1.41 | 1.41 | 92 | 1006.4 |
| 20260506153706 | 55 | 73 | 2.0 | 5.0 | 0.02 | 1.41 | 1.41 | 92 | 1006.5 |
| 20260506153206 | 55 | 81 | 2.0 | 5.0 | 0.02 | 1.41 | 1.41 | 93 | 1006.6 |
| 20260506152706 | 55 | 65 | 2.0 | 5.0 | 0.02 | 1.41 | 1.41 | 93 | 1006.5 |
| 20260506152206 | 55 | 61 | 2.0 | 3.0 | 0.02 | 1.41 | 1.41 | 93 | 1006.6 |
| 20260506151706 | 55 | 94 | 3.0 | 7.0 | 0.02 | 1.41 | 1.41 | 92 | 1006.5 |
| 20260506151206 | 54 | 93 | 3.0 | 9.0 | 0.02 | 1.41 | 1.41 | 92 | 1006.5 |
| 20260506150706 | 55 | 77 | 2.0 | 8.0 | 0.02 | 1.41 | 1.41 | 93 | 1006.4 |
| 20260506150206 | 55 | 86 | 2.0 | 4.0 | 0.01 | 1.40 | 1.40 | 93 | 1006.4 |
| 20260506145707 | 55 | 56 | 2.0 | 3.0 | 0.01 | 1.40 | 1.40 | 93 | 1006.5 |
| 20260506145206 | 54 | 74 | 2.0 | 5.0 | 0.00 | 1.39 | 1.39 | 92 | 1006.6 |
| 20260506144706 | 54 | 31 | 2.0 | 5.0 | 0.00 | 1.39 | 1.39 | 92 | 1006.5 |
| 20260506144207 | 54 | 55 | 2.0 | 4.0 | 0.00 | 1.39 | 1.39 | 92 | 1006.6 |
| 20260506143707 | 54 | 48 | 2.0 | 5.0 | 0.00 | 1.39 | 1.39 | 92 | 1006.7 |
| 20260506143207 | 55 | 88 | 3.0 | 5.0 | 0.00 | 1.39 | 1.39 | 91 | 1006.6 |
| 20260506142707 | 55 | 52 | 2.0 | 5.0 | 0.00 | 1.39 | 1.39 | 91 | 1006.6 |
| 20260506142207 | 55 | 83 | 2.0 | 6.0 | 0.00 | 1.39 | 1.39 | 91 | 1006.6 |
| 20260506141707 | 55 | 39 | 2.0 | 4.0 | 0.00 | 1.39 | 1.39 | 91 | 1006.7 |
| 20260506141207 | 55 | 43 | 2.0 | 7.0 | 0.00 | 1.39 | 1.39 | 91 | 1006.6 |
| 20260506140707 | 55 | 36 | 2.0 | 5.0 | 0.00 | 1.39 | 1.39 | 90 | 1006.6 |
| 20260506140207 | 55 | 72 | 2.0 | 4.0 | 0.00 | 1.39 | 1.39 | 90 | 1006.6 |
| 20260506135707 | 55 | 101 | 2.0 | 5.0 | 0.00 | 1.39 | 1.39 | 89 | 1006.6 |
| 20260506135207 | 56 | 31 | 2.0 | 5.0 | 0.00 | 1.39 | 1.39 | 89 | 1006.6 |
| 20260506134707 | 56 | 72 | 1.0 | 7.0 | 0.00 | 1.39 | 1.39 | 89 | 1006.6 |
| 20260506134207 | 56 | 36 | 1.0 | 4.0 | 0.00 | 1.39 | 1.39 | 90 | 1006.7 |
| 20260506133707 | 56 | 26 | 2.0 | 4.0 | 0.00 | 1.39 | 1.39 | 90 | 1006.6 |
| 20260506133207 | 56 | 47 | 2.0 | 4.0 | 0.00 | 1.39 | 1.39 | 90 | 1006.6 |
| 20260506132707 | 56 | 77 | 2.0 | 4.0 | 0.00 | 1.39 | 1.39 | 90 | 1006.6 |
| 20260506132207 | 56 | 85 | 2.0 | 4.0 | 0.00 | 1.39 | 1.39 | 91 | 1006.6 |
| 20260506131707 | 56 | 72 | 2.0 | 5.0 | 0.00 | 1.39 | 1.39 | 91 | 1006.5 |
| 20260506131207 | 55 | 93 | 2.0 | 5.0 | 0.00 | 1.39 | 1.39 | 91 | 1006.5 |
| 20260506130707 | 55 | 60 | 2.0 | 5.0 | 0.00 | 1.39 | 1.39 | 92 | 1006.5 |
| 20260506130207 | 55 | 61 | 2.0 | 6.0 | 0.00 | 1.39 | 1.39 | 92 | 1006.5 |
| 20260506125707 | 55 | 68 | 2.0 | 4.0 | 0.00 | 1.39 | 1.39 | 93 | 1006.6 |
| 20260506125207 | 55 | 47 | 2.0 | 4.0 | 0.01 | 1.39 | 1.39 | 94 | 1006.5 |
| 20260506124707 | 54 | 95 | 3.0 | 5.0 | 0.01 | 1.39 | 1.39 | 93 | 1006.6 |
| 20260506124207 | 54 | 69 | 2.0 | 6.0 | 0.01 | 1.39 | 1.39 | 94 | 1006.6 |
| 20260506123707 | 54 | 35 | 2.0 | 4.0 | 0.02 | 1.39 | 1.39 | 94 | 1006.6 |
| 20260506123207 | 54 | 97 | 2.0 | 4.0 | 0.03 | 1.39 | 1.39 | 94 | 1006.6 |
| 20260506122707 | 54 | 66 | 1.0 | 3.0 | 0.04 | 1.39 | 1.39 | 94 | 1006.6 |
| 20260506122207 | 54 | 95 | 2.0 | 3.0 | 0.04 | 1.39 | 1.39 | 95 | 1006.6 |
| 20260506121707 | 54 | 86 | 2.0 | 5.0 | 0.04 | 1.39 | 1.39 | 95 | 1006.6 |
| 20260506121207 | 54 | 38 | 2.0 | 4.0 | 0.04 | 1.39 | 1.39 | 95 | 1006.6 |
| 20260506120707 | 54 | 91 | 2.0 | 3.0 | 0.04 | 1.39 | 1.39 | 95 | 1006.5 |
| 20260506120207 | 54 | 61 | 2.0 | 3.0 | 0.04 | 1.39 | 1.39 | 95 | 1006.5 |
| 20260506115707 | 53 | 44 | 3.0 | 6.0 | 0.04 | 1.39 | 1.39 | 95 | 1006.5 |
| 20260506115207 | 53 | 37 | 3.0 | 6.0 | 0.03 | 1.38 | 1.38 | 94 | 1006.5 |
| 20260506114707 | 53 | 26 | 3.0 | 5.0 | 0.03 | 1.38 | 1.38 | 94 | 1006.5 |
| 20260506114207 | 53 | 26 | 3.0 | 6.0 | 0.03 | 1.38 | 1.38 | 94 | 1006.7 |
| 20260506113707 | 53 | 26 | 2.0 | 5.0 | 0.03 | 1.37 | 1.37 | 94 | 1006.7 |
| 20260506113207 | 53 | 37 | 2.0 | 4.0 | 0.02 | 1.36 | 1.36 | 94 | 1006.6 |
| 20260506112707 | 53 | 41 | 2.0 | 4.0 | 0.01 | 1.35 | 1.35 | 94 | 1006.6 |
| 20260506112207 | 53 | 31 | 2.0 | 4.0 | 0.01 | 1.35 | 1.35 | 94 | 1006.7 |
| 20260506111707 | 53 | 31 | 3.0 | 5.0 | 0.01 | 1.35 | 1.35 | 94 | 1006.5 |
| 20260506111207 | 53 | 38 | 3.0 | 4.0 | 0.01 | 1.35 | 1.35 | 94 | 1006.6 |
| 20260506110707 | 53 | 26 | 3.0 | 4.0 | 0.01 | 1.35 | 1.35 | 94 | 1006.6 |
| 20260506110207 | 53 | 38 | 3.0 | 5.0 | 0.01 | 1.35 | 1.35 | 94 | 1006.5 |
| 20260506105707 | 53 | 26 | 3.0 | 8.0 | 0.01 | 1.35 | 1.35 | 93 | 1006.3 |
| 20260506105207 | 53 | 26 | 2.0 | 5.0 | 0.01 | 1.35 | 1.35 | 94 | 1006.3 |
| 20260506104707 | 53 | 84 | 1.0 | 2.0 | 0.01 | 1.35 | 1.35 | 94 | 1006.4 |
| 20260506104207 | 53 | 39 | 2.0 | 3.0 | 0.01 | 1.35 | 1.35 | 94 | 1006.4 |
| 20260506103707 | 53 | 21 | 2.0 | 4.0 | 0.00 | 1.34 | 1.34 | 94 | 1006.3 |
| 20260506103207 | 52 | 26 | 2.0 | 5.0 | 0.00 | 1.34 | 1.34 | 94 | 1006.4 |
| 20260506102707 | 52 | 26 | 1.0 | 3.0 | 0.00 | 1.34 | 1.34 | 94 | 1006.3 |
| 20260506102207 | 52 | 81 | 2.0 | 3.0 | 0.00 | 1.34 | 1.34 | 94 | 1006.3 |
| 20260506101707 | 52 | 54 | 2.0 | 5.0 | 0.00 | 1.34 | 1.34 | 93 | 1006.1 |
| 20260506101207 | 52 | 61 | 2.0 | 4.0 | 0.00 | 1.34 | 1.34 | 93 | 1006.2 |
| 20260506100707 | 52 | 35 | 3.0 | 6.0 | 0.00 | 1.34 | 1.34 | 94 | 1006.1 |
| 20260506100207 | 52 | 31 | 2.0 | 5.0 | 0.00 | 1.34 | 1.34 | 94 | 1006.1 |
| 20260506095707 | 52 | 16 | 2.0 | 5.0 | 0.00 | 1.34 | 1.34 | 94 | 1006.1 |
| 20260506095207 | 52 | 79 | 2.0 | 4.0 | 0.00 | 1.34 | 1.34 | 93 | 1006.1 |
| 20260506094707 | 52 | 50 | 2.0 | 4.0 | 0.00 | 1.34 | 1.34 | 94 | 1006.0 |
| 20260506094207 | 52 | 35 | 2.0 | 6.0 | 0.00 | 1.34 | 1.34 | 94 | 1006.0 |
| 20260506093707 | 52 | 35 | 2.0 | 4.0 | 0.00 | 1.34 | 1.34 | 94 | 1006.0 |
| 20260506093207 | 52 | 36 | 3.0 | 7.0 | 0.00 | 1.34 | 1.34 | 93 | 1006.1 |
| 20260506092707 | 52 | 80 | 3.0 | 5.0 | 0.00 | 1.34 | 1.34 | 94 | 1005.9 |
| 20260506092207 | 52 | 21 | 3.0 | 5.0 | 0.00 | 1.35 | 1.34 | 93 | 1006.1 |
| 20260506091707 | 51 | 31 | 3.0 | 8.0 | 0.00 | 1.35 | 1.34 | 93 | 1005.9 |
| 20260506091207 | 51 | 53 | 3.0 | 6.0 | 0.00 | 1.35 | 1.34 | 93 | 1005.9 |
| 20260506090707 | 51 | 26 | 4.0 | 6.0 | 0.01 | 1.35 | 1.34 | 94 | 1005.9 |
| 20260506090207 | 51 | 26 | 3.0 | 8.0 | 0.01 | 1.35 | 1.34 | 93 | 1005.8 |
| 20260506085707 | 51 | 26 | 3.0 | 6.0 | 0.01 | 1.35 | 1.34 | 94 | 1005.9 |
| 20260506085207 | 51 | 44 | 3.0 | 5.0 | 0.01 | 1.35 | 1.34 | 94 | 1005.9 |
| 20260506084707 | 51 | 37 | 4.0 | 9.0 | 0.01 | 1.35 | 1.34 | 94 | 1005.8 |
| 20260506084207 | 51 | 31 | 4.0 | 8.0 | 0.02 | 1.35 | 1.34 | 95 | 1005.8 |
| 20260506083707 | 51 | 21 | 3.0 | 6.0 | 0.02 | 1.35 | 1.34 | 94 | 1005.7 |
| 20260506083207 | 51 | 31 | 2.0 | 6.0 | 0.02 | 1.35 | 1.34 | 95 | 1005.7 |
| 20260506082707 | 51 | 26 | 2.0 | 4.0 | 0.03 | 1.35 | 1.34 | 95 | 1005.7 |
| 20260506082207 | 51 | 106 | 3.0 | 4.0 | 0.03 | 1.35 | 1.34 | 95 | 1005.6 |
| 20260506081707 | 51 | 45 | 4.0 | 7.0 | 0.04 | 1.35 | 1.34 | 95 | 1005.7 |
| 20260506081207 | 51 | 39 | 4.0 | 5.0 | 0.05 | 1.35 | 1.34 | 95 | 1005.7 |
| 20260506080707 | 51 | 49 | 4.0 | 7.0 | 0.04 | 1.34 | 1.33 | 95 | 1005.7 |
| 20260506080207 | 51 | 31 | 5.0 | 9.0 | 0.05 | 1.34 | 1.33 | 95 | 1005.7 |
| 20260506073207 | 50 | 43 | 3.0 | 5.0 | 0.11 | 1.33 | 1.32 | 95 | 1005.7 |
| 20260506072707 | 50 | 35 | 2.0 | 5.0 | 0.11 | 1.32 | 1.31 | 95 | 1005.5 |
| 20260506072207 | 50 | 41 | 1.0 | 3.0 | 0.12 | 1.32 | 1.31 | 95 | 1005.6 |
| 20260506071707 | 50 | 48 | 2.0 | 3.0 | 0.12 | 1.31 | 1.30 | 95 | 1005.6 |
| 20260506071207 | 50 | 36 | 3.0 | 4.0 | 0.12 | 1.30 | 1.29 | 95 | 1005.6 |
| 20260506070707 | 50 | 767 | 3.0 | 5.0 | 0.13 | 1.30 | 1.29 | 95 | 1005.6 |
| 20260506070207 | 50 | 31 | 3.0 | 6.0 | 0.13 | 1.29 | 1.28 | 95 | 1005.5 |
| 20260506062207 | 50 | 767 | 3.0 | 4.0 | 0.11 | 1.20 | 1.19 | 95 | 1005.2 |
| 20260506061707 | 50 | 37 | 3.0 | 6.0 | 0.12 | 1.19 | 1.18 | 95 | 1005.2 |
| 20260506061207 | 50 | 39 | 4.0 | 6.0 | 0.12 | 1.18 | 1.17 | 95 | 1005.2 |
| 20260506060707 | 50 | 21 | 4.0 | 8.0 | 0.12 | 1.17 | 1.16 | 95 | 1005.2 |
| 20260506060207 | 50 | 26 | 3.0 | 5.0 | 0.12 | 1.16 | 1.15 | 95 | 1005.2 |
| 20260506051207 | 50 | 26 | 4.0 | 8.0 | 0.20 | 1.07 | 1.05 | 95 | 1005.1 |
| 20260506050707 | 50 | 26 | 3.0 | 6.0 | 0.20 | 1.06 | 1.04 | 95 | 1005.3 |
| 20260506050207 | 50 | 767 | 3.0 | 6.0 | 0.20 | 1.05 | 1.03 | 95 | 1005.3 |
| 20260506044707 | 50 | 31 | 4.0 | 9.0 | 0.19 | 1.00 | 0.98 | 95 | 1005.2 |
| 20260506044207 | 50 | 39 | 5.0 | 8.0 | 0.17 | 0.97 | 0.95 | 95 | 1005.2 |
| 20260506043707 | 50 | 39 | 5.0 | 11.0 | 0.16 | 0.95 | 0.93 | 95 | 1005.2 |
| 20260506043207 | 50 | 31 | 4.0 | 9.0 | 0.15 | 0.93 | 0.91 | 95 | 1005.1 |
| 20260506042707 | 50 | 48 | 5.0 | 9.0 | 0.14 | 0.91 | 0.89 | 95 | 1005.1 |
| 20260506042207 | 51 | 26 | 5.0 | 11.0 | 0.14 | 0.91 | 0.88 | 94 | 1005.1 |
| 20260506041707 | 51 | 56 | 4.0 | 8.0 | 0.13 | 0.89 | 0.86 | 95 | 1005.1 |
| 20260506041207 | 51 | 51 | 4.0 | 6.0 | 0.13 | 0.88 | 0.85 | 95 | 1005.1 |
| 20260506040707 | 51 | 42 | 4.0 | 8.0 | 0.13 | 0.87 | 0.84 | 95 | 1005.0 |
| 20260506040207 | 51 | 26 | 4.0 | 8.0 | 0.13 | 0.86 | 0.83 | 95 | 1005.0 |
| 20260506035707 | 51 | 767 | 4.0 | 8.0 | 0.13 | 0.85 | 0.82 | 95 | 1005.0 |
| 20260506035207 | 51 | 38 | 4.0 | 8.0 | 0.12 | 0.83 | 0.80 | 95 | 1005.1 |
| 20260506034707 | 51 | 43 | 4.0 | 8.0 | 0.12 | 0.82 | 0.79 | 95 | 1005.1 |
| 20260506034207 | 51 | 35 | 4.0 | 9.0 | 0.12 | 0.81 | 0.78 | 95 | 1005.2 |
| 20260506033707 | 51 | 26 | 4.0 | 9.0 | 0.13 | 0.80 | 0.77 | 94 | 1005.2 |
| 20260506033207 | 51 | 11 | 5.0 | 9.0 | 0.15 | 0.79 | 0.76 | 95 | 1005.1 |
| 20260506032707 | 51 | 31 | 6.0 | 10.0 | 0.15 | 0.78 | 0.75 | 95 | 1005.1 |
| 20260506032207 | 51 | 16 | 5.0 | 11.0 | 0.17 | 0.77 | 0.74 | 95 | 1005.3 |
| 20260506031707 | 51 | 31 | 5.0 | 9.0 | 0.19 | 0.76 | 0.73 | 95 | 1005.3 |
| 20260506031207 | 51 | 767 | 5.0 | 9.0 | 0.20 | 0.75 | 0.72 | 95 | 1005.2 |
| 20260506030707 | 51 | 31 | 6.0 | 11.0 | 0.22 | 0.74 | 0.71 | 95 | 1005.3 |
| 20260506030207 | 51 | 767 | 5.0 | 10.0 | 0.24 | 0.73 | 0.70 | 95 | 1005.2 |
| 20260506025708 | 51 | 767 | 5.0 | 9.0 | 0.27 | 0.72 | 0.69 | 95 | 1005.4 |
| 20260506025207 | 51 | 41 | 4.0 | 9.0 | 0.29 | 0.71 | 0.68 | 95 | 1005.4 |
| 20260506024708 | 51 | 26 | 4.0 | 8.0 | 0.29 | 0.70 | 0.67 | 95 | 1005.5 |
| 20260506024208 | 51 | 26 | 3.0 | 6.0 | 0.30 | 0.69 | 0.66 | 94 | 1005.5 |
| 20260506023707 | 51 | 26 | 3.0 | 5.0 | 0.30 | 0.67 | 0.64 | 94 | 1005.5 |
| 20260506023208 | 51 | 37 | 4.0 | 8.0 | 0.29 | 0.64 | 0.61 | 94 | 1005.6 |
| 20260506022708 | 51 | 767 | 4.0 | 9.0 | 0.29 | 0.63 | 0.60 | 94 | 1005.7 |
| 20260506022208 | 51 | 31 | 4.0 | 6.0 | 0.27 | 0.60 | 0.57 | 95 | 1005.7 |
| 20260506021708 | 51 | 37 | 4.0 | 7.0 | 0.26 | 0.57 | 0.54 | 94 | 1005.9 |
| 20260506021208 | 51 | 40 | 4.0 | 8.0 | 0.25 | 0.55 | 0.52 | 94 | 1005.8 |
| 20260506020708 | 51 | 42 | 4.0 | 6.0 | 0.23 | 0.52 | 0.49 | 94 | 1005.8 |
| 20260506020208 | 51 | 31 | 4.0 | 7.0 | 0.21 | 0.49 | 0.46 | 94 | 1005.8 |
| 20260506015708 | 52 | 39 | 4.0 | 6.0 | 0.17 | 0.45 | 0.42 | 94 | 1005.8 |
| 20260506015208 | 52 | 36 | 4.0 | 6.0 | 0.15 | 0.42 | 0.39 | 94 | 1005.8 |
| 20260506014708 | 52 | 26 | 3.0 | 8.0 | 0.15 | 0.41 | 0.38 | 94 | 1005.9 |
| 20260506014208 | 52 | 59 | 3.0 | 5.0 | 0.14 | 0.39 | 0.36 | 94 | 1005.9 |
| 20260506013708 | 52 | 42 | 4.0 | 9.0 | 0.13 | 0.37 | 0.34 | 94 | 1005.9 |
| 20260506013208 | 52 | 26 | 4.0 | 8.0 | 0.12 | 0.35 | 0.32 | 94 | 1005.9 |
| 20260506012708 | 52 | 53 | 4.0 | 9.0 | 0.12 | 0.34 | 0.31 | 94 | 1005.9 |
| 20260506012208 | 52 | 767 | 5.0 | 9.0 | 0.12 | 0.34 | 0.30 | 94 | 1005.8 |
| 20260506011708 | 52 | 42 | 4.0 | 13.0 | 0.11 | 0.32 | 0.28 | 94 | 1005.9 |
| 20260506011208 | 52 | 26 | 4.0 | 10.0 | 0.11 | 0.31 | 0.27 | 94 | 1005.9 |
| 20260506010708 | 52 | 48 | 5.0 | 9.0 | 0.10 | 0.30 | 0.26 | 94 | 1006.0 |
| 20260506010208 | 52 | 35 | 5.0 | 13.0 | 0.10 | 0.29 | 0.25 | 94 | 1005.9 |
| 20260506005708 | 52 | 37 | 3.0 | 7.0 | 0.10 | 0.29 | 0.25 | 94 | 1005.9 |
| 20260506005208 | 52 | 26 | 4.0 | 10.0 | 0.10 | 0.28 | 0.24 | 94 | 1006.0 |
| 20260506004708 | 52 | 26 | 4.0 | 8.0 | 0.10 | 0.27 | 0.23 | 94 | 1006.1 |
| 20260506004208 | 52 | 31 | 5.0 | 8.0 | 0.09 | 0.26 | 0.22 | 94 | 1006.0 |
| 20260506003708 | 52 | 21 | 6.0 | 10.0 | 0.09 | 0.25 | 0.21 | 94 | 1006.0 |
| 20260506003208 | 52 | 48 | 6.0 | 11.0 | 0.09 | 0.24 | 0.20 | 94 | 1006.1 |
| 20260506002708 | 52 | 15 | 5.0 | 11.0 | 0.08 | 0.23 | 0.19 | 94 | 1006.1 |
| 20260506002208 | 52 | 767 | 6.0 | 9.0 | 0.08 | 0.22 | 0.18 | 94 | 1006.3 |
| 20260506001708 | 52 | 26 | 6.0 | 11.0 | 0.07 | 0.21 | 0.17 | 94 | 1006.2 |
| 20260506001208 | 52 | 39 | 6.0 | 10.0 | 0.07 | 0.20 | 0.16 | 94 | 1006.3 |
| 20260506000708 | 52 | 56 | 5.0 | 11.0 | 0.08 | 0.20 | 0.16 | 94 | 1006.4 |
| 20260506000208 | 52 | 26 | 4.0 | 9.0 | 0.07 | 0.19 | 0.15 | 94 | 1006.3 |
| 20260505235708 | 52 | 767 | 4.0 | 8.0 | 0.08 | 0.19 | 0.15 | 94 | 1006.6 |
| 20260505235208 | 52 | 54 | 5.0 | 8.0 | 0.08 | 0.18 | 0.14 | 94 | 1006.6 |
| 20260505234708 | 52 | 31 | 4.0 | 9.0 | 0.07 | 0.17 | 0.13 | 94 | 1006.6 |
| 20260505234208 | 52 | 26 | 5.0 | 9.0 | 0.08 | 0.17 | 0.13 | 94 | 1006.7 |
| 20260505233708 | 52 | 31 | 5.0 | 9.0 | 0.08 | 0.16 | 0.12 | 94 | 1006.8 |
| 20260505233208 | 52 | 31 | 5.0 | 10.0 | 0.08 | 0.15 | 0.11 | 94 | 1006.7 |
| 20260505232708 | 52 | 26 | 6.0 | 10.0 | 0.09 | 0.15 | 0.11 | 94 | 1006.8 |
| 20260505232208 | 52 | 26 | 6.0 | 10.0 | 0.08 | 0.15 | 0.10 | 93 | 1006.7 |
| 20260505231708 | 52 | 26 | 6.0 | 11.0 | 0.09 | 0.15 | 0.10 | 93 | 1006.8 |
| 20260505231208 | 52 | 26 | 6.0 | 11.0 | 0.08 | 0.14 | 0.09 | 93 | 1006.9 |
| 20260505230708 | 52 | 8 | 5.0 | 9.0 | 0.07 | 0.13 | 0.08 | 93 | 1006.8 |
| 20260505230208 | 52 | 41 | 6.0 | 9.0 | 0.08 | 0.13 | 0.08 | 93 | 1006.7 |
| 20260505225708 | 53 | 26 | 6.0 | 13.0 | 0.07 | 0.12 | 0.07 | 93 | 1006.8 |
| 20260505225208 | 53 | 21 | 6.0 | 10.0 | 0.06 | 0.11 | 0.06 | 93 | 1006.8 |
| 20260505224708 | 53 | 31 | 6.0 | 10.0 | 0.06 | 0.11 | 0.06 | 93 | 1007.0 |
| 20260505224208 | 53 | 767 | 5.0 | 10.0 | 0.05 | 0.10 | 0.05 | 92 | 1007.0 |
| 20260505223708 | 53 | 21 | 5.0 | 9.0 | 0.04 | 0.09 | 0.04 | 92 | 1007.1 |
| 20260505223208 | 53 | 26 | 6.0 | 10.0 | 0.03 | 0.08 | 0.03 | 92 | 1007.2 |
| 20260505222708 | 53 | 0 | 6.0 | 10.0 | 0.02 | 0.07 | 0.02 | 92 | 1007.3 |
| 20260505222208 | 53 | 31 | 7.0 | 12.0 | 0.02 | 0.20 | 0.02 | 92 | 1007.2 |
| 20260505221708 | 53 | 359 | 6.0 | 11.0 | 0.01 | 0.19 | 0.01 | 92 | 1007.3 |
| 20260505221208 | 53 | 39 | 6.0 | 9.0 | 0.01 | 0.19 | 0.01 | 92 | 1007.2 |
| 20260505220708 | 53 | 26 | 7.0 | 11.0 | 0.01 | 0.19 | 0.01 | 91 | 1007.3 |
| 20260505220208 | 54 | 26 | 6.0 | 10.0 | 0.00 | 0.18 | 0.00 | 91 | 1007.3 |
| 20260505215708 | 54 | 45 | 6.0 | 10.0 | 0.00 | 0.18 | 0.46 | 91 | 1007.3 |
| 20260505215208 | 54 | 39 | 6.0 | 10.0 | 0.00 | 0.18 | 0.46 | 91 | 1007.4 |
| 20260505214708 | 54 | 38 | 7.0 | 10.0 | 0.00 | 0.18 | 0.46 | 90 | 1007.3 |
| 20260505214208 | 54 | 26 | 7.0 | 12.0 | 0.00 | 0.18 | 0.46 | 90 | 1007.4 |
| 20260505213708 | 54 | 26 | 8.0 | 12.0 | 0.00 | 0.18 | 0.46 | 90 | 1007.4 |
| 20260505213208 | 54 | 13 | 7.0 | 12.0 | 0.00 | 0.18 | 0.46 | 90 | 1007.5 |
| 20260505212708 | 54 | 26 | 7.0 | 10.0 | 0.00 | 0.18 | 0.46 | 90 | 1007.5 |
| 20260505212208 | 54 | 26 | 7.0 | 11.0 | 0.00 | 0.46 | 0.46 | 90 | 1007.5 |
| 20260505211708 | 54 | 21 | 7.0 | 10.0 | 0.00 | 0.46 | 0.46 | 90 | 1007.4 |
| 20260505211208 | 54 | 351 | 7.0 | 12.0 | 0.00 | 0.46 | 0.46 | 90 | 1007.5 |
| 20260505210708 | 54 | 26 | 7.0 | 12.0 | 0.00 | 0.46 | 0.46 | 91 | 1007.4 |
| 20260505210208 | 54 | 26 | 8.0 | 12.0 | 0.00 | 0.46 | 0.46 | 91 | 1007.4 |
| 20260505205708 | 54 | 21 | 7.0 | 12.0 | 0.00 | 0.46 | 0.46 | 91 | 1007.5 |
| 20260505205208 | 54 | 31 | 7.0 | 13.0 | 0.00 | 0.46 | 0.46 | 90 | 1007.6 |
| 20260505204708 | 54 | 26 | 8.0 | 12.0 | 0.00 | 0.46 | 0.46 | 90 | 1007.5 |
| 20260505204208 | 54 | 26 | 8.0 | 13.0 | 0.00 | 0.46 | 0.46 | 90 | 1007.5 |
| 20260505203708 | 54 | 26 | 8.0 | 12.0 | 0.00 | 0.46 | 0.46 | 90 | 1007.5 |
| 20260505203208 | 54 | 31 | 7.0 | 12.0 | 0.00 | 0.46 | 0.46 | 90 | 1007.8 |
| 20260505202708 | 54 | 17 | 7.0 | 11.0 | 0.00 | 0.46 | 0.46 | 90 | 1007.6 |
| 20260505202208 | 54 | 21 | 8.0 | 12.0 | 0.00 | 0.59 | 0.46 | 90 | 1007.7 |
| 20260505201708 | 54 | 26 | 9.0 | 11.0 | 0.00 | 0.59 | 0.46 | 90 | 1007.6 |
| 20260505201208 | 55 | 339 | 9.0 | 13.0 | 0.00 | 0.59 | 0.46 | 90 | 1007.6 |
| 20260505200708 | 55 | 26 | 9.0 | 13.0 | 0.00 | 0.59 | 0.46 | 90 | 1007.7 |
| 20260505200208 | 55 | 26 | 9.0 | 14.0 | 0.00 | 0.59 | 0.46 | 89 | 1007.7 |
| 20260505195708 | 55 | 26 | 8.0 | 13.0 | 0.00 | 0.59 | 0.46 | 89 | 1007.6 |
| 20260505195208 | 55 | 26 | 8.0 | 12.0 | 0.00 | 0.59 | 0.46 | 89 | 1007.6 |
| 20260505194708 | 55 | 39 | 8.0 | 11.0 | 0.00 | 0.59 | 0.46 | 89 | 1007.6 |
| 20260505194208 | 55 | 356 | 8.0 | 13.0 | 0.00 | 0.59 | 0.46 | 89 | 1007.6 |
| 20260505193708 | 55 | 17 | 7.0 | 14.0 | 0.00 | 0.59 | 0.46 | 88 | 1007.7 |
| 20260505193208 | 56 | 354 | 7.0 | 9.0 | 0.00 | 0.59 | 0.46 | 89 | 1007.7 |
| 20260505192708 | 56 | 31 | 8.0 | 12.0 | 0.00 | 0.59 | 0.46 | 88 | 1007.7 |
| 20260505192208 | 56 | 21 | 7.0 | 10.0 | 0.00 | 0.59 | 0.46 | 88 | 1007.8 |
| 20260505191708 | 56 | 35 | 6.0 | 10.0 | 0.00 | 0.59 | 0.46 | 88 | 1007.7 |
| 20260505191208 | 56 | 39 | 7.0 | 10.0 | 0.00 | 0.59 | 0.46 | 88 | 1007.7 |
| 20260505190708 | 56 | 21 | 8.0 | 10.0 | 0.00 | 0.59 | 0.46 | 88 | 1007.7 |
| 20260505190208 | 56 | 26 | 9.0 | 13.0 | 0.00 | 0.59 | 0.46 | 88 | 1007.7 |
| 20260505185708 | 56 | 26 | 8.0 | 13.0 | 0.00 | 0.59 | 0.46 | 87 | 1007.7 |
| 20260505185208 | 57 | 11 | 6.0 | 11.0 | 0.00 | 0.59 | 0.46 | 87 | 1007.7 |
| 20260505184708 | 57 | 31 | 6.0 | 9.0 | 0.00 | 0.59 | 0.46 | 87 | 1007.7 |
| 20260505184208 | 57 | 35 | 7.0 | 11.0 | 0.00 | 0.59 | 0.46 | 87 | 1007.7 |
| 20260505183708 | 57 | 15 | 7.0 | 12.0 | 0.00 | 0.59 | 0.46 | 87 | 1007.8 |
| 20260505183208 | 57 | 26 | 6.0 | 10.0 | 0.00 | 0.59 | 0.46 | 87 | 1007.8 |
| 20260505182708 | 57 | 26 | 6.0 | 9.0 | 0.00 | 0.59 | 0.46 | 87 | 1007.7 |
| 20260505182208 | 57 | 50 | 6.0 | 9.0 | 0.00 | 0.59 | 0.46 | 86 | 1007.6 |
| 20260505181708 | 58 | 26 | 6.0 | 9.0 | 0.00 | 0.59 | 0.46 | 86 | 1007.6 |
| 20260505181208 | 58 | 31 | 6.0 | 10.0 | 0.00 | 0.59 | 0.46 | 87 | 1007.6 |
| 20260505180708 | 58 | 357 | 6.0 | 10.0 | 0.00 | 0.59 | 0.46 | 86 | 1007.6 |
| 20260505180208 | 58 | 354 | 5.0 | 10.0 | 0.00 | 0.59 | 0.46 | 86 | 1007.6 |
| 20260505175708 | 58 | 21 | 6.0 | 9.0 | 0.00 | 0.59 | 0.46 | 86 | 1007.5 |
| 20260505175208 | 58 | 0 | 7.0 | 11.0 | 0.00 | 0.59 | 0.46 | 86 | 1007.5 |
| 20260505174708 | 58 | 50 | 8.0 | 11.0 | 0.00 | 0.59 | 0.46 | 86 | 1007.5 |
| 20260505173709 | 58 | 347 | 7.0 | 12.0 | 0.00 | 0.59 | 0.46 | 86 | 1007.6 |
| 20260505173209 | 59 | 355 | 7.0 | 11.0 | 0.00 | 0.59 | 0.46 | 85 | 1007.6 |
| 20260505172709 | 59 | 351 | 6.0 | 11.0 | 0.00 | 0.59 | 0.46 | 85 | 1007.6 |
| 20260505171709 | 59 | 351 | 7.0 | 12.0 | 0.00 | 0.59 | 0.46 | 84 | 1007.5 |
| 20260505171209 | 60 | 14 | 6.0 | 9.0 | 0.00 | 0.59 | 0.46 | 84 | 1007.6 |
| 20260505170709 | 60 | 359 | 7.0 | 10.0 | 0.00 | 0.59 | 0.46 | 83 | 1007.6 |
| 20260505170209 | 60 | 0 | 7.0 | 11.0 | 0.00 | 0.59 | 0.46 | 82 | 1007.7 |
| 20260505165709 | 60 | 4 | 6.0 | 11.0 | 0.00 | 0.59 | 0.46 | 82 | 1007.6 |
| 20260505165209 | 61 | 26 | 6.0 | 9.0 | 0.00 | 0.59 | 0.46 | 81 | 1007.8 |
| 20260505164709 | 61 | 26 | 7.0 | 12.0 | 0.00 | 0.59 | 0.46 | 81 | 1007.8 |
| 20260505164209 | 61 | 36 | 6.0 | 10.0 | 0.00 | 0.59 | 0.46 | 81 | 1007.8 |
| 20260505163709 | 61 | 21 | 6.0 | 9.0 | 0.00 | 0.59 | 0.46 | 82 | 1007.8 |
| 20260505163209 | 61 | 26 | 6.0 | 10.0 | 0.00 | 0.59 | 0.46 | 82 | 1007.7 |
| 20260505162709 | 61 | 6 | 7.0 | 10.0 | 0.00 | 0.59 | 0.46 | 83 | 1007.8 |
| 20260505162209 | 61 | 4 | 7.0 | 11.0 | 0.00 | 0.59 | 0.46 | 82 | 1007.9 |
| 20260505161709 | 61 | 26 | 6.0 | 10.0 | 0.00 | 0.59 | 0.46 | 82 | 1007.8 |
| 20260505161209 | 61 | 36 | 5.0 | 9.0 | 0.00 | 0.59 | 0.46 | 83 | 1007.9 |